Погода в Тургеневе

Россия / Владимирская область     55°26′02″N   41°52′24″E
темп.,
°C
ветер,
м/с
пор.,
м/с
влажн.,
%
обл.,
%
осадки,
мм/ч
давл.,
гПа
погр.,
м
6 мая, чт
чт600:00+9юз41287100 0.3 1010480
03:00+8ююз311925 0.3 1011323
06:00+8ю41188100 0.0 1010314
09:00+14ююз61068100 0.0 1011632
12:00+16ююз71257100 0.0 10111654
15:00+16ююз81457100 0.2 10101878
18:00+15ююз8156196 0.1 10091663
21:00+13ююз61264100 0.1 10091169
7 мая, пт
пт700:00+10ююз51088100 0.4 1010784
03:00+9зюз4890100 1.8 1010558
06:00+8юз3791100 0.2 1012436
09:00+10зюз4763100 0.2 1013916
12:00+14зюз57375 0.0 10142175
15:00+15зюз56325 0.0 10142550
18:00+14юз36448 0.0 1015423
21:00+8ююз366729 0.0 1016106
8 мая, сб
сб800:00+7ю366783 0.0 101691
03:00+6ююв397494 0.0 1016175
06:00+7ююв4117276 0.0 1015322
09:00+13ююв71162100 0.0 10131011
12:00+16ююв81347100 0.0 10101758
15:00+12ююв71479100 0.5 1008931
18:00+12ю71387100 0.2 1006813
21:00+11ю61395100 1.9 1005647
9 мая, вс
вс900:00+8з61193100 9.9 1005673
03:00+6юз5994100 12.1 1008624
06:00+6ююз4890100 0.1 1010529
09:00+8зюз5676100 0.1 1011998
12:00+8зсз4568100 0.1 10121212
15:00+9сз3568100 0.1 10141062
18:00+8ссз4875100 0.1 1017978
21:00+6ссз3783100 0.2 1019197
10 мая, пн
пн1000:00+4ссз41088100 0.0 1020315
03:00+4с51380100 0.0 1022495
06:00+4с51377100 0.0 1024677
09:00+8ссв71157100 0.0 1025854
12:00+12ссв794318 0.0 10251264
15:00+13св6742100 0.0 10251217
18:00+12св485656 0.0 1026560
21:00+7ссв367699 0.0 102794